sat.trackr.live / text

‹ back to catalog

STARLINK-2618

NORAD 48693 · 2021-044BH

PAYLOAD ACTIVE UNKNOWN

§ Identity

Operator
Country
US
Launch date
2021-05-26
Launch site
AFETR
Launch vehicle
Mass (kg)
RCS (m²)

Purposes: comms

External: N2YO · Heavens-Above · Gunter

§ Orbital elements

Epoch: 2026-05-25T02:53:21.015168Z

Period
94.01 min
Inclination
53.1607°
Eccentricity
0.0001132
Mean motion
15.31700669 rev/d
Perigee alt
470.0 km
Apogee alt
471.5 km
Semi-major
6,848.9 km
B*
2.4392e-5
RAAN
79.7571°
Arg perigee
99.0731°
Mean anomaly
261.0399°
Rev number
27,607

§ Raw data

STARLINK-26181 48693U 21044BH  26145.12038212  .00000392  00000+0  24392-4 0  99952 48693  53.1607  79.7571 0001132  99.0731 261.0399 15.31700669276076

JSON: /api/v1/satellites/48693 · /tle

For live sub-satellite position, see the globe view (requires WebGL).

§ Visibility from observer

Set your observer location to see the next 7 days of passes ≥ 10°. The values pass through the URL so the page stays shareable.

No JS? Fill the form by hand. The geolocation button needs JavaScript.